HBLMA LSGG-LSZH

Flight info

Callsign HBLMA
Flight time 0h 45m
Altitude 13000
Route N LACOTE LAUSANNE FRIBOURG WIL TRIENGEN W W1 W2
Aircraft E55P/M-SL/A

Departure

Time 2026-05-05 21:06
Airport Geneva International Airport (LSGG)

Arrival

Time 2026-05-05 21:52
Airport Zürich Airport (LSZH)
Time Latitude Longitude Altitude Speed Heading
2026-05-05 20:59 46.23665 6.10121 1393 ft 0 kts 46°
2026-05-05 20:59 46.23685 6.10152 1391 ft 7 kts 46°
2026-05-05 20:59 46.23734 6.10222 1387 ft 12 kts 44°
2026-05-05 21:00 46.23800 6.10321 1384 ft 14 kts 45°
2026-05-05 21:00 46.23862 6.10412 1386 ft 10 kts 45°
2026-05-05 21:00 46.23918 6.10494 1387 ft 12 kts 45°
2026-05-05 21:00 46.23984 6.10591 1387 ft 15 kts 45°
2026-05-05 21:01 46.24033 6.10664 1386 ft 7 kts 47°
2026-05-05 21:01 46.24029 6.10728 1383 ft 7 kts 140°
2026-05-05 21:01 46.24012 6.10749 1382 ft 0 kts 136°
2026-05-05 21:02 46.24012 6.10750 1382 ft 0 kts 136°
2026-05-05 21:02 46.24007 6.10757 1382 ft 1 kts 133°
2026-05-05 21:02 46.23998 6.10772 1381 ft 1 kts 134°
2026-05-05 21:02 46.23989 6.10783 1381 ft 1 kts 136°
2026-05-05 21:03 46.23982 6.10794 1381 ft 1 kts 136°
2026-05-05 21:03 46.23960 6.10823 1380 ft 1 kts 136°
2026-05-05 21:03 46.23940 6.10851 1379 ft 4 kts 136°
2026-05-05 21:03 46.23923 6.10875 1378 ft 3 kts 136°
2026-05-05 21:04 46.23907 6.10897 1378 ft 2 kts 135°
2026-05-05 21:04 46.23897 6.10912 1377 ft 1 kts 135°
2026-05-05 21:04 46.23894 6.10916 1377 ft 0 kts 135°
2026-05-05 21:04 46.23891 6.10920 1377 ft 1 kts 135°
2026-05-05 21:05 46.23844 6.10934 1376 ft 10 kts 205°
2026-05-05 21:05 46.23816 6.10901 1377 ft 0 kts 226°
2026-05-05 21:05 46.23812 6.10895 1377 ft 11 kts 226°
2026-05-05 21:06 46.23531 6.10480 1383 ft 101 kts 224°
2026-05-05 21:06 46.22899 6.09582 1665 ft 142 kts 223°
2026-05-05 21:06 46.22152 6.08583 2209 ft 160 kts 221°
2026-05-05 21:06 46.21201 6.07437 2748 ft 197 kts 219°
2026-05-05 21:07 46.20185 6.05924 3165 ft 218 kts 234°
2026-05-05 21:07 46.19498 6.03990 3241 ft 214 kts 251°
2026-05-05 21:07 46.19485 6.01946 3319 ft 202 kts 288°
2026-05-05 21:07 46.20174 6.00261 3405 ft 190 kts 321°
2026-05-05 21:08 46.21314 5.99724 3561 ft 175 kts
2026-05-05 21:08 46.22409 6.00598 3361 ft 183 kts 41°
2026-05-05 21:08 46.23323 6.01898 3256 ft 187 kts 45°
2026-05-05 21:08 46.24222 6.03250 3251 ft 186 kts 46°
2026-05-05 21:09 46.25111 6.04639 3217 ft 188 kts 45°
2026-05-05 21:09 46.26028 6.05990 3207 ft 187 kts 43°
2026-05-05 21:09 46.26942 6.07317 3186 ft 188 kts 46°
2026-05-05 21:09 46.27808 6.08715 3237 ft 184 kts 49°
2026-05-05 21:10 46.28590 6.10147 3244 ft 183 kts 53°
2026-05-05 21:10 46.29415 6.11563 3274 ft 181 kts 41°
2026-05-05 21:10 46.30463 6.12580 3249 ft 183 kts 25°
2026-05-05 21:10 46.31611 6.13365 3199 ft 187 kts 24°
2026-05-05 21:11 46.32800 6.14150 3203 ft 185 kts 24°
2026-05-05 21:11 46.33949 6.14942 3261 ft 181 kts 23°
2026-05-05 21:11 46.35101 6.15686 3276 ft 180 kts 24°
2026-05-05 21:11 46.36228 6.16490 3245 ft 182 kts 27°
2026-05-05 21:12 46.37331 6.17401 3230 ft 182 kts 28°
2026-05-05 21:12 46.38441 6.18270 3224 ft 182 kts 27°
2026-05-05 21:12 46.39547 6.19177 3223 ft 182 kts 31°
2026-05-05 21:12 46.40595 6.20220 3199 ft 183 kts 36°
2026-05-05 21:13 46.41610 6.21340 3190 ft 183 kts 39°
2026-05-05 21:13 46.42534 6.22592 3211 ft 181 kts 45°
2026-05-05 21:13 46.43391 6.23914 3336 ft 178 kts 46°
2026-05-05 21:13 46.44221 6.25227 3579 ft 174 kts 46°
2026-05-05 21:14 46.45114 6.26575 4050 ft 193 kts 45°
2026-05-05 21:14 46.46068 6.28008 4646 ft 206 kts 44°
2026-05-05 21:14 46.47098 6.29544 5251 ft 221 kts 44°
2026-05-05 21:14 46.48158 6.31180 5922 ft 231 kts 45°
2026-05-05 21:15 46.49221 6.32959 6656 ft 239 kts 48°
2026-05-05 21:15 46.50246 6.34829 7503 ft 241 kts 49°
2026-05-05 21:15 46.51260 6.36701 7728 ft 230 kts 49°
2026-05-05 21:15 46.52244 6.38500 7706 ft 229 kts 48°
2026-05-05 21:16 46.53263 6.40339 7394 ft 239 kts 48°
2026-05-05 21:16 46.54306 6.42194 7449 ft 231 kts 47°
2026-05-05 21:16 46.55346 6.43989 7398 ft 229 kts 47°
2026-05-05 21:16 46.56318 6.45757 7557 ft 219 kts 49°
2026-05-05 21:17 46.57227 6.47474 7693 ft 210 kts 50°
2026-05-05 21:17 46.57985 6.49229 7847 ft 203 kts 65°
2026-05-05 21:17 46.58254 6.51277 7777 ft 208 kts 88°
2026-05-05 21:17 46.58052 6.53344 7703 ft 213 kts 101°
2026-05-05 21:18 46.57664 6.55474 7549 ft 220 kts 106°
2026-05-05 21:18 46.57191 6.57586 7595 ft 216 kts 108°
2026-05-05 21:18 46.56728 6.59642 7580 ft 216 kts 106°
2026-05-05 21:18 46.56330 6.61758 7480 ft 219 kts 102°
2026-05-05 21:19 46.56020 6.63913 7533 ft 215 kts 98°
2026-05-05 21:19 46.55902 6.66092 7479 ft 216 kts 90°
2026-05-05 21:19 46.55967 6.68318 7344 ft 222 kts 85°
2026-05-05 21:19 46.56089 6.70551 7303 ft 222 kts 85°
2026-05-05 21:20 46.56193 6.72780 7237 ft 223 kts 86°
2026-05-05 21:20 46.56327 6.74989 7362 ft 215 kts 84°
2026-05-05 21:20 46.56475 6.77123 7390 ft 212 kts 83°
2026-05-05 21:20 46.56656 6.79248 7352 ft 213 kts 82°
2026-05-05 21:21 46.56905 6.81396 7306 ft 214 kts 78°
2026-05-05 21:21 46.57243 6.83478 7335 ft 211 kts 73°
2026-05-05 21:21 46.57696 6.85429 7553 ft 201 kts 64°
2026-05-05 21:21 46.58363 6.87143 7813 ft 200 kts 56°
2026-05-05 21:22 46.59127 6.88906 8235 ft 207 kts 56°
2026-05-05 21:22 46.59917 6.90791 8677 ft 230 kts 57°
2026-05-05 21:22 46.60766 6.92853 9184 ft 250 kts 56°
2026-05-05 21:22 46.61698 6.95040 9881 ft 261 kts 56°
2026-05-05 21:23 46.62834 6.97056 10668 ft 262 kts 33°
2026-05-05 21:23 46.64476 6.98104 11370 ft 265 kts 11°
2026-05-05 21:23 46.66347 6.98501 11854 ft 281 kts
2026-05-05 21:23 46.68338 6.99104 12183 ft 307 kts 13°
2026-05-05 21:24 46.70396 7.00079 12617 ft 319 kts 15°
2026-05-05 21:24 46.72499 7.01078 12871 ft 313 kts 14°
2026-05-05 21:24 46.74559 7.02016 13195 ft 306 kts 14°
2026-05-05 21:24 46.76540 7.03092 13360 ft 307 kts 20°
2026-05-05 21:25 46.78443 7.04508 13496 ft 311 kts 28°
2026-05-05 21:25 46.80212 7.06441 13425 ft 321 kts 40°
2026-05-05 21:25 46.81710 7.08808 13588 ft 320 kts 47°
2026-05-05 21:25 46.83139 7.11261 13857 ft 312 kts 46°
2026-05-05 21:26 46.84612 7.13626 13636 ft 320 kts 45°
2026-05-05 21:26 46.86167 7.16010 13420 ft 326 kts 44°
2026-05-05 21:26 46.87761 7.18449 13137 ft 334 kts 45°
2026-05-05 21:26 46.89370 7.20862 12961 ft 336 kts 43°
2026-05-05 21:27 46.91042 7.23193 12956 ft 332 kts 40°
2026-05-05 21:27 46.92762 7.25428 13010 ft 324 kts 37°
2026-05-05 21:27 46.94467 7.27466 13243 ft 311 kts 35°
2026-05-05 21:27 46.96117 7.29390 13303 ft 307 kts 35°
2026-05-05 21:28 46.97814 7.31343 13207 ft 308 kts 33°
2026-05-05 21:28 46.99414 7.33384 13220 ft 308 kts 39°
2026-05-05 21:28 47.00874 7.35734 13056 ft 316 kts 47°
2026-05-05 21:28 47.02246 7.38290 12956 ft 319 kts 49°
2026-05-05 21:29 47.03527 7.41038 12722 ft 326 kts 55°
2026-05-05 21:29 47.04667 7.43778 12735 ft 313 kts 57°
2026-05-05 21:29 47.05745 7.46524 12603 ft 304 kts 56°
2026-05-05 21:29 47.06794 7.49136 12552 ft 295 kts 56°
2026-05-05 21:30 47.07841 7.51725 12324 ft 294 kts 55°
2026-05-05 21:30 47.08937 7.54289 11943 ft 298 kts 53°
2026-05-05 21:30 47.10106 7.56765 11731 ft 294 kts 49°
2026-05-05 21:30 47.11350 7.59075 11628 ft 285 kts 44°
2026-05-05 21:31 47.12649 7.61265 11422 ft 283 kts 46°
2026-05-05 21:31 47.13885 7.63386 11632 ft 259 kts 37°
2026-05-05 21:31 47.15241 7.65037 11401 ft 262 kts 37°
2026-05-05 21:31 47.16444 7.67059 11392 ft 257 kts 48°
2026-05-05 21:32 47.17514 7.69178 11104 ft 262 kts 47°
2026-05-05 21:32 47.18587 7.71199 11031 ft 256 kts 47°
2026-05-05 21:32 47.19575 7.73357 11008 ft 252 kts 55°
2026-05-05 21:32 47.20310 7.75719 10671 ft 263 kts 73°
2026-05-05 21:33 47.20750 7.78395 10123 ft 275 kts 77°
2026-05-05 21:33 47.21341 7.81018 10015 ft 268 kts 71°
2026-05-05 21:33 47.22026 7.83575 9625 ft 271 kts 71°
2026-05-05 21:33 47.22640 7.86156 9416 ft 265 kts 74°
2026-05-05 21:34 47.23187 7.88719 9178 ft 261 kts 72°
2026-05-05 21:34 47.23878 7.91181 8713 ft 268 kts 60°
2026-05-05 21:34 47.24780 7.93547 8601 ft 257 kts 60°
2026-05-05 21:34 47.25502 7.95838 8655 ft 242 kts 69°
2026-05-05 21:35 47.25908 7.98241 8347 ft 244 kts 82°
2026-05-05 21:35 47.26218 8.00633 8426 ft 228 kts 76°
2026-05-05 21:35 47.26593 8.02852 8396 ft 223 kts 75°
2026-05-05 21:35 47.27011 8.05113 8099 ft 235 kts 73°
2026-05-05 21:36 47.27511 8.07429 7959 ft 238 kts 71°
2026-05-05 21:36 47.28046 8.09723 7837 ft 240 kts 70°
2026-05-05 21:36 47.28713 8.11969 7739 ft 239 kts 61°
2026-05-05 21:36 47.29538 8.14068 7816 ft 230 kts 62°
2026-05-05 21:37 47.30362 8.16011 7919 ft 222 kts 54°
2026-05-05 21:37 47.31286 8.17835 7964 ft 217 kts 49°
2026-05-05 21:37 47.32297 8.19442 7874 ft 218 kts 43°
2026-05-05 21:37 47.33417 8.21051 7514 ft 226 kts 42°
2026-05-05 21:38 47.34577 8.22669 7084 ft 234 kts 41°
2026-05-05 21:38 47.35802 8.24325 6509 ft 248 kts 41°
2026-05-05 21:38 47.36956 8.26221 6073 ft 251 kts 56°
2026-05-05 21:38 47.37728 8.28482 5879 ft 241 kts 75°
2026-05-05 21:39 47.37732 8.30845 5689 ft 225 kts 112°
2026-05-05 21:39 47.36923 8.32626 5627 ft 202 kts 150°
2026-05-05 21:39 47.35587 8.32752 4812 ft 214 kts 211°
2026-05-05 21:39 47.34885 8.31007 4274 ft 203 kts 267°
2026-05-05 21:40 47.35463 8.29184 3509 ft 211 kts 318°
2026-05-05 21:40 47.36886 8.28626 2828 ft 225 kts
2026-05-05 21:40 47.38179 8.29755 2597 ft 219 kts 51°
2026-05-05 21:40 47.38488 8.31709 2696 ft 197 kts 111°
2026-05-05 21:41 47.37706 8.33305 2810 ft 179 kts 131°
2026-05-05 21:41 47.37210 8.34801 3015 ft 166 kts 98°
2026-05-05 21:41 47.37407 8.36664 3308 ft 201 kts 75°
2026-05-05 21:41 47.37827 8.38729 3535 ft 219 kts 75°
2026-05-05 21:42 47.38268 8.40860 3705 ft 211 kts 71°
2026-05-05 21:42 47.38821 8.42794 4024 ft 197 kts 67°
2026-05-05 21:42 47.39336 8.44691 3982 ft 204 kts 71°
2026-05-05 21:42 47.40000 8.46442 4091 ft 190 kts 53°
2026-05-05 21:43 47.40480 8.47396 3670 ft 205 kts 52°
2026-05-05 21:43 47.41312 8.49185 3162 ft 212 kts 66°
2026-05-05 21:43 47.41671 8.51154 3257 ft 185 kts 71°
2026-05-05 21:43 47.42061 8.52776 3303 ft 157 kts 64°
2026-05-05 21:44 47.42828 8.53432 3058 ft 138 kts 332°
2026-05-05 21:44 47.43328 8.52356 2937 ft 129 kts 287°
2026-05-05 21:44 47.43539 8.51077 2893 ft 124 kts 284°
2026-05-05 21:44 47.43581 8.49817 2871 ft 125 kts 253°
2026-05-05 21:45 47.42925 8.49056 2797 ft 133 kts 182°
2026-05-05 21:45 47.42269 8.49822 2679 ft 134 kts 94°
2026-05-05 21:45 47.42318 8.51165 2742 ft 126 kts 72°
2026-05-05 21:45 47.42601 8.52409 2689 ft 133 kts 69°
2026-05-05 21:46 47.42967 8.53693 2642 ft 136 kts 58°
2026-05-05 21:46 47.43617 8.54697 2565 ft 139 kts 50°
2026-05-05 21:46 47.43900 8.56075 2556 ft 137 kts 76°
2026-05-05 21:46 47.44147 8.57421 2586 ft 135 kts 71°
2026-05-05 21:47 47.44449 8.58709 2636 ft 131 kts 67°
2026-05-05 21:47 47.44843 8.59901 2637 ft 130 kts 41°
2026-05-05 21:47 47.45776 8.60039 2811 ft 140 kts 326°
2026-05-05 21:47 47.45853 8.58744 2228 ft 155 kts 248°
2026-05-05 21:48 47.45719 8.57301 2185 ft 127 kts 270°
2026-05-05 21:48 47.45781 8.56029 2032 ft 120 kts 277°
2026-05-05 21:48 47.45889 8.54820 1978 ft 120 kts 279°
2026-05-05 21:48 47.45872 8.53587 2009 ft 124 kts 253°
2026-05-05 21:49 47.45212 8.52839 2265 ft 133 kts 165°
2026-05-05 21:49 47.44342 8.53400 2548 ft 143 kts 152°
2026-05-05 21:49 47.43894 8.54642 2810 ft 139 kts 86°
2026-05-05 21:49 47.43867 8.55962 2798 ft 124 kts 90°
2026-05-05 21:50 47.43823 8.57209 2645 ft 121 kts 91°
2026-05-05 21:50 47.43751 8.58400 2516 ft 115 kts 93°
2026-05-05 21:50 47.43862 8.59539 2321 ft 113 kts 41°
2026-05-05 21:50 47.44682 8.59832 2294 ft 126 kts 355°
2026-05-05 21:51 47.45288 8.59012 1994 ft 130 kts 294°
2026-05-05 21:51 47.45591 8.57783 1605 ft 130 kts 277°
2026-05-05 21:51 47.45693 8.56510 1400 ft 115 kts 275°
2026-05-05 21:51 47.45777 8.55434 1378 ft 95 kts 276°
2026-05-05 21:52 47.45862 8.54225 1381 ft 29 kts 275°
2026-05-05 21:52 47.45880 8.53947 1381 ft 25 kts 272°
2026-05-05 21:52 47.45847 8.53794 1381 ft 10 kts 227°
2026-05-05 21:53 47.45800 8.53750 1381 ft 6 kts 181°
2026-05-05 21:53 47.45762 8.53767 1381 ft 4 kts 143°
2026-05-05 21:53 47.45723 8.53815 1381 ft 9 kts 127°
2026-05-05 21:53 47.45692 8.53923 1381 ft 12 kts 107°
2026-05-05 21:54 47.45660 8.54064 1381 ft 15 kts 107°
2026-05-05 21:54 47.45625 8.54229 1382 ft 18 kts 107°
2026-05-05 21:54 47.45583 8.54419 1381 ft 21 kts 108°
2026-05-05 21:54 47.45535 8.54640 1381 ft 24 kts 108°
2026-05-05 21:55 47.45484 8.54867 1381 ft 21 kts 108°
2026-05-05 21:55 47.45414 8.55003 1381 ft 7 kts 162°
2026-05-05 21:55 47.45329 8.55008 1381 ft 27 kts 219°
2026-05-05 21:55 47.45234 8.54913 1381 ft 3 kts 157°
2026-05-05 21:56 47.45197 8.54936 1381 ft 14 kts 155°
2026-05-05 21:56 47.45058 8.55038 1381 ft 29 kts 154°
2026-05-05 21:56 47.44879 8.55127 1381 ft 24 kts 191°
2026-05-05 21:56 47.44800 8.55073 1381 ft 4 kts 236°
2026-05-05 21:57 47.44787 8.55028 1381 ft 4 kts 253°
2026-05-05 21:57 47.44778 8.54982 1381 ft 5 kts 255°
2026-05-05 21:57 47.44796 8.54941 1381 ft 5 kts 334°
2026-05-05 21:57 47.44802 8.54937 1381 ft 0 kts 334°
2026-05-05 21:58 47.44804 8.54935 1381 ft 0 kts 334°
2026-05-05 21:58 47.44807 8.54933 1381 ft 2 kts 334°
2026-05-05 21:58 47.44869 8.54974 1381 ft 14 kts 76°
2026-05-05 21:58 47.44850 8.55170 1381 ft 25 kts 98°
2026-05-05 21:59 47.44906 8.55475 1382 ft 35 kts 65°
2026-05-05 21:59 47.45055 8.55610 1378 ft 26 kts 332°
2026-05-05 21:59 47.45222 8.55495 1378 ft 27 kts 335°
2026-05-05 21:59 47.45382 8.55383 1378 ft 23 kts 332°
2026-05-05 22:00 47.45518 8.55291 1378 ft 19 kts 335°
2026-05-05 22:00 47.45634 8.55221 1378 ft 16 kts 357°
2026-05-05 22:00 47.45676 8.55330 1378 ft 12 kts 96°
2026-05-05 22:00 47.45668 8.55445 1378 ft 10 kts 95°
2026-05-05 22:01 47.45658 8.55572 1378 ft 24 kts 95°
2026-05-05 22:01 47.45640 8.55839 1378 ft 26 kts 95°
2026-05-05 22:01 47.45620 8.56122 1378 ft 28 kts 95°
2026-05-05 22:01 47.45599 8.56423 1378 ft 30 kts 95°
2026-05-05 22:02 47.45578 8.56720 1378 ft 27 kts 95°
2026-05-05 22:02 47.45565 8.56901 1378 ft 11 kts 95°
2026-05-05 22:02 47.45549 8.57001 1378 ft 8 kts 119°
2026-05-05 22:02 47.45532 8.57072 1378 ft 7 kts 97°
2026-05-05 22:03 47.45503 8.57155 1378 ft 11 kts 121°
2026-05-05 22:03 47.45435 8.57229 1378 ft 12 kts 147°
2026-05-05 22:03 47.45413 8.57285 1378 ft 1 kts 131°
2026-05-05 22:03 47.45407 8.57291 1378 ft 0 kts 155°
2026-05-05 22:04 47.45405 8.57292 1378 ft 0 kts 177°
2026-05-05 22:04 47.45398 8.57292 1378 ft 1 kts 184°
2026-05-05 22:04 47.45394 8.57291 1378 ft 0 kts 186°